FW9179 Weather Reports


time (UTC)temp
C
wind
direction
speed
KPH
gust
KPH
rain 1hr
cm
rain 24hr
cm
rain mn
cm
humidity
%
barometer
mb
20260503010112 13 28 4.8 8.0 0.00 0.00 0.00 63 904.7
20260503004605 13 28 4.8 8.0 0.00 0.00 0.00 64 904.8
20260503003109 13 5 0.0 1.6 0.00 0.00 0.00 66 904.8
20260503001605 14 14 3.2 4.8 0.00 0.00 0.00 64 904.8
20260503000104 13 36 0.0 0.0 0.00 0.00 0.00 64 904.9
20260502234605 13 353 4.8 9.7 0.00 0.00 0.00 65 904.9
20260502233104 14 335 6.4 14.5 0.00 0.00 0.00 65 903.9
20260502231604 13 332 6.4 9.7 0.00 0.00 0.00 66 904.4
20260502230105 14 291 1.6 4.8 0.00 0.00 0.00 65 905.2
20260502224605 15 305 3.2 6.4 0.00 0.00 0.00 64 905.0
20260502223106 15 136 3.2 4.8 0.00 0.00 0.00 62 904.2
20260502221605 15 208 6.4 11.3 0.00 0.00 0.00 65 904.4
20260502214608 16 177 6.4 14.5 0.00 0.00 0.00 62 904.4
20260502213104 15 323 3.2 6.4 0.00 0.00 0.00 67 904.4
20260502211606 15 231 9.7 14.5 0.00 0.00 0.00 62 904.3
20260502210104 14 104 8.0 12.9 0.00 0.00 0.00 60 904.1
20260502204608 15 54 4.8 12.9 0.00 0.00 0.00 62 904.4
20260502203104 14 138 12.9 24.1 0.00 0.00 0.00 63 903.9
20260502200106 13 91 3.2 8.0 0.00 0.00 0.00 61 904.2
20260502194604 13 138 4.8 9.7 0.00 0.00 0.00 61 903.9
20260502193104 13 125 8.0 11.3 0.00 0.00 0.00 61 904.1
20260502191609 13 101 14.5 17.7 0.00 0.00 0.00 61 904.5
20260502190109 13 149 4.8 14.5 0.00 0.00 0.00 61 903.8
20260502184604 13 100 11.3 16.1 0.00 0.00 0.00 61 903.6
20260502183104 12 106 12.9 17.7 0.00 0.00 0.00 61 903.6
20260502181606 13 100 12.9 17.7 0.00 0.00 0.00 61 903.8
20260502180104 12 104 11.3 14.5 0.00 0.00 0.00 63 903.6
20260502170105 11 121 9.7 14.5 0.00 0.00 0.00 63 903.7
20260502163104 11 108 11.3 19.3 0.00 0.00 0.00 63 903.6
20260502161604 11 124 19.3 29.0 0.00 0.00 0.00 63 903.6
20260502160104 10 116 24.1 37.0 0.00 0.00 0.00 63 903.7
20260502151604 9 111 17.7 33.8 0.00 0.00 0.00 63 903.9
20260502150106 9 108 24.1 38.6 0.00 0.00 0.00 63 903.9
20260502140105 9 110 25.7 32.2 0.00 0.00 0.00 62 904.2
20260502130108 9 114 19.3 30.6 0.00 0.00 0.00 62 904.4
20260502123104 8 104 25.7 38.6 0.00 0.00 0.00 62 904.4
20260502121604 8 104 25.7 35.4 0.00 0.00 0.00 62 904.3
20260502120110 8 109 24.1 32.2 0.00 0.00 0.00 62 904.3
20260502114605 9 103 27.4 41.8 0.00 0.00 0.00 62 904.4
20260502113106 9 106 25.7 37.0 0.00 0.00 0.00 62 904.5
20260502111609 8 105 27.4 40.2 0.00 0.00 0.00 63 904.4
20260502110104 8 105 22.5 32.2 0.00 0.00 0.00 64 904.3
20260502104604 8 103 24.1 43.5 0.00 0.00 0.00 63 904.4
20260502103105 8 99 20.9 29.0 0.00 0.00 0.00 64 904.4
20260502100105 8 102 25.7 41.8 0.00 0.00 0.00 64 904.4
20260502090107 9 102 19.3 29.0 0.00 0.00 0.00 64 904.4
20260502080105 9 99 17.7 22.5 0.00 0.00 0.00 67 904.4
20260502064611 9 98 17.7 29.0 0.00 0.00 0.00 66 904.5
20260502063107 9 101 17.7 24.1 0.00 0.00 0.00 67 904.4
20260502060113 9 94 14.5 22.5 0.00 0.00 0.00 66 904.5
20260502054604 9 87 12.9 17.7 0.00 0.00 0.00 67 904.5
20260502053104 10 104 14.5 22.5 0.00 0.00 0.00 67 904.5
20260502050107 9 102 19.3 29.0 0.00 0.00 0.00 67 904.7
20260502044611 10 104 16.1 19.3 0.00 0.00 0.00 67 904.7
20260502043105 10 103 14.5 20.9 0.00 0.00 0.00 67 904.7
20260502041609 10 89 11.3 16.1 0.00 0.00 0.00 66 904.7
20260502040108 10 90 11.3 16.1 0.00 0.00 0.00 66 904.7
20260502034604 10 96 16.1 19.3 0.00 0.00 0.00 66 904.8
20260502033107 10 92 16.1 19.3 0.00 0.00 0.00 65 904.8
20260502030111 10 85 8.0 12.9 0.00 0.00 0.00 66 904.8
20260502024604 9 107 11.3 14.5 0.00 0.00 0.00 66 904.5
20260502023105 9 39 9.7 11.3 0.00 0.00 0.00 68 904.8
20260502021606 10 16 6.4 8.0 0.00 0.00 0.00 70 904.9
20260502014606 11 344 4.8 9.7 0.00 0.00 0.00 67 904.7
20260502013105 11 337 8.0 11.3 0.00 0.00 0.00 66 904.9
20260502011606 11 334 6.4 11.3 0.00 0.00 0.00 66 905.0